FENGYUN 1C DEB, 37593

Orbit data source: Space-Track

FENGYUN 1C DEB, 37593 is space debris in SSO originally from a launch on Mon, 10 May 1999 UTC launched from the Taiyaun Space Center, China (TSC). Fengyun 1C debris stems from the Chinese weather satellite Fengyun-1C, which was intentionally destroyed by a Chinese anti-satellite missile in 2007. This event dramatically increased the amount of space debris, with thousands of trackable fragments posing hazards to satellites and human spaceflight. The Fengyun 1C debris cloud has become a focal point in discussions about space sustainability and the need for international regulations to prevent the creation of new debris.

Loading next visibility...
Identifier
37593, 1999-025EKM
Orbit
SSO
Country
Flag of CNCN / PRC
Related business
Manufacturer
Unknown
Mission
Spacecraft
Bus & Motor
Unknown
Mass
Unknown
Launch date (UTC)
1999-05-10 (27 years ago)
Launch vehicle
Unknown
Launch site
Taiyaun Space Center, China (TSC)
Object type
Payload
Rocket body
Debris
Shape & HBR
Unknown shape, 0.1 m
Radar Cross Section
Small (<0.1 m²)

Expand to show TLE details & history
Last TLE update: 1 week ago

TLE from 1 week ago
0 FENGYUN 1C DEB
1 37593U 99025EKM 26111.94769777  .00002529  00000-0  75553-3 0  9995
2 37593  99.0018   0.3664 0148753  93.8555 284.5207 14.37671158879913
Epoch: 2026-04-21T22:44Z
TLE epoch observation values (Epoch: 2026-04-21T22:44:41.087Z)
Latitude
16.49099°
Longitude
166.50539°
Altitude
743.325 km
Speed
7.498 km/s
True Right ascension
23h 50m 46s
True Declination
16° 23' 51"
Sunlit
Object was in daylight at epoch
Visualization orbit readout
Latitude
Unknown
Longitude
Unknown
Altitude
Unknown
Speed
Unknown
Apparent Right ascension
Unknown
Apparent Declination
Unknown
Sunlit
N/A
Visualization observer readout
Local Sidereal Time
04:48:50
Azimuth
Unknown
Elevation
Unknown
Doppler factor
Unknown
Orbital elements
Apogee altitude
869.584 km
Perigee altitude
657.12 km
Semi-major axis
7,141.489 km
Eccentricity
0.01488
Inclination
99.0018°
RAAN
0.3664°
Arg. of periapsis
93.8555°
True anomaly
282.86307°
Mean anomaly
284.5207°
Eccentric anomaly
283.69263°
Mean motion
3.59633 °/min
Orbital period
100.1 mins
BSTAR
0.00075553
Loading maneuver chart data...
Computing Atmospheric mass density...

Documentation

Showing up to 5 results
|